CZ-4B DEB (48623 NORAD) Tracking and Keplerian Element Data

This shows tracking and keplerian element data for the satellite.

Feedback or suggestion? Click here.




ElementValue
Catalog48623
NameCZ-4B DEB
Epoch Orbit396
Epoch Day167.73287028
Epoch Year2021
RAAN171.5314
Inclination66.0784
Eccentricity0.003875
Argument of Perigee250.1873
Mean Anonmoly109.5009
Mean Motion13.88907439
Decay Rate-2.8E-07
L11 48623U 21043C 21167.73287028 -.00000028 00000-0 44426-4 0 9992
L22 48623 66.0784 171.5314 0038750 250.1873 109.5009 13.88907439 3961

Live tracking and technical data element details for CZ-4B DEB (NORAD 48623). CZ-4B DEB can be tracked NOW for your location showing map with azimuth and elevation plus other details from your city location.

Track the satellite on the map from your city or location and see movement details for azimuth, elevation, latitude, longitude, range, height, and movement on the map or in text.







IsCatalogInMostPopularTable: catalog: 48623, numindb: 42
Update: records affected: 1



GetName: 48623 CZ-4B DEB

Hit Count: updated at: Tue, 19 Oct 2021 08:38:59 GMT